Truth Or Consequences, NM

8:52 AM MST on November 12, 2019 (GMT -0700)
Truth Or Consequences Municipal

Weather History for KTCS - October, 2019

Change the Weather History Date:

Tuesday, October 15, 2019

  Actual Average Record
Temperature  
Mean Temperature 66 °F -  
Max Temperature 80 °F 75 °F 87 °F (2015)
Min Temperature 53 °F 48 °F 39 °F (1997)
Degree Days  
Heating Degree Days 0    
Month to date heating degree days  
Since 1 July heating degree days  
Cooling Degree Days 1    
Month to date cooling degree days  
Year to date cooling degree days  
Growing Degree Days 16 (Base 50)    
Moisture  
Dew Point 34 °F    
Average Humidity 39    
Maximum Humidity 87    
Minimum Humidity 13    
Precipitation  
Precipitation 0.00 in - 0.37 in (2005)
Month to date precipitation  
Year to date precipitation  
Sea Level Pressure  
Sea Level Pressure 29.96 in    
Wind  
Wind Speed 5 mph ()    
Max Wind Speed 10 mph    
Max Gust Speed -    
Visibility 10.0 miles    
Events      
T = Trace of Precipitation, MM = Missing Value Source: Averaged Metar Reports

Daily Weather History Graph

Daily Weather History Graph

Search for Another Location

Airport or City:

Astronomy

Oct. 15, 2019 Rise Set
Actual Time 7:13 AM MDT 6:35 PM MDT
Civil Twilight 6:48 AM MDT 7:00 PM MDT
Nautical Twilight 6:19 AM MDT 7:29 PM MDT
Astronomical Twilight 5:50 AM MDT 7:58 PM MDT
Moon 8:01 PM MDT (10/15) 8:44 AM MDT (10/15)
Length of Visible Light 12h 12m
Length of Day
11h 22m
Full, 97% of the Moon is Illuminated
Oct 15
Full
Oct 21
Last Quarter
Oct 27
New
Nov 4
First Quarter
Nov 12
Full

Hourly Weather History & Observations

Time (MDT) Temp. Dew Point Humidity Pressure Visibility Wind Dir Wind Speed Gust Speed Precip Events Conditions
12:53 AM 60.1 °F 54.0 °F 80% 29.88 in 10.0 mi West 3.5 mph - N/A   Clear
1:53 AM 57.9 °F 54.0 °F 87% 29.89 in 10.0 mi West 5.8 mph - N/A   Clear
2:53 AM 59.0 °F 55.0 °F 87% 29.89 in 10.0 mi SW 4.6 mph - N/A   Clear
3:53 AM 57.0 °F 51.1 °F 81% 29.89 in 10.0 mi West 4.6 mph - N/A   Clear
4:53 AM 55.9 °F 37.0 °F 49% 29.90 in 10.0 mi WNW 4.6 mph - N/A   Clear
5:53 AM 55.0 °F 33.1 °F 43% 29.93 in 10.0 mi West 5.8 mph - N/A   Clear
6:53 AM 53.1 °F 44.1 °F 71% 29.96 in 10.0 mi North 5.8 mph - N/A   Clear
7:53 AM 55.9 °F 50.0 °F 80% 29.97 in 10.0 mi NNW 4.6 mph - N/A   Clear
8:53 AM 63.0 °F 39.0 °F 41% 29.98 in 10.0 mi Calm Calm - N/A   Clear
9:53 AM 68.0 °F 37.9 °F 33% 29.99 in 10.0 mi Variable 4.6 mph - N/A   Clear
10:53 AM 71.1 °F 36.0 °F 28% 29.98 in 10.0 mi NNE 9.2 mph - N/A   Clear
11:53 AM - - N/A% 30.18 in - North - - N/A   Unknown
12:53 PM 77.0 °F 27.0 °F 16% 29.95 in - NNE 9.2 mph - N/A   Unknown
1:53 PM 78.1 °F 28.9 °F 17% 29.93 in 10.0 mi East 9.2 mph - N/A   Clear
2:53 PM 79.0 °F 24.1 °F 13% 29.91 in 10.0 mi North - - N/A   Clear
3:53 PM 79.0 °F 23.0 °F 13% 29.91 in 10.0 mi ENE 10.4 mph - N/A   Clear
4:53 PM 78.1 °F 23.0 °F 13% 29.91 in 10.0 mi Variable 3.5 mph - N/A   Clear
5:53 PM 78.1 °F 24.1 °F 14% 29.91 in 10.0 mi ENE 4.6 mph - N/A   Clear
6:53 PM 72.0 °F 25.0 °F 17% 29.95 in 10.0 mi North 5.8 mph - N/A   Clear
7:53 PM 68.0 °F 26.1 °F 21% 29.98 in 10.0 mi North 5.8 mph - N/A   Clear
8:53 PM 64.0 °F 26.1 °F 24% 29.99 in 10.0 mi North 8.1 mph - N/A   Clear
9:53 PM 64.0 °F 23.0 °F 21% 30.00 in 10.0 mi NNW 5.8 mph - N/A   Clear
10:53 PM 63.0 °F 21.9 °F 21% 30.00 in 10.0 mi NW 6.9 mph - N/A   Clear
11:53 PM 57.0 °F 26.1 °F 30% 30.20 in 10.0 mi NW 9.2 mph - N/A   Clear